Regional Weather Roundup
Issued by NWS Cleveland, OH

Home | Current Version | Previous Version | Text Only | Print | Product List | Glossary Off
Versions: 1 2 3 4 5 6 7 8 9 10 11 12 13 14 15 16 17 18 19 20 21 22 23 24 25 26 27 28 29 30 31 32 33 34 35 36 37 38 39 40 41 42 43 44 45 46 47 48 49 50

000
ASUS41 KCLE 171300
RWRCLE
OHIO REGIONAL WEATHER ROUNDUP
NATIONAL WEATHER SERVICE WILMINGTON, OH
900 AM EDT WED SEP 17 2014

NOTE: "FAIR" INDICATES FEW OR NO CLOUDS BELOW 12,000 FEET WITH NO
SIGNIFICANT WEATHER AND/OR OBSTRUCTIONS TO VISIBILITY.

OHZ001>008-015>018-024>027-034-035-043-044-171400-
   NORTHWEST OHIO

CITY           SKY/WX    TMP DP  RH WIND       PRES   REMARKS
DEFIANCE       SUNNY     49  46  90 CALM      30.09S
FINDLAY        SUNNY     49  46  90 CALM      30.07S
TOLEDO EXPRESS SUNNY     49  45  86 W3        30.08R
TOLEDO METCALF SUNNY     50  46  86 W3        30.08S
LIMA           SUNNY     52  47  83 CALM      30.08S
$$

OHZ009>014-019>023-028>033-038-089-171400-
   NORTHEAST OHIO

CITY           SKY/WX    TMP DP  RH WIND       PRES   REMARKS
CLE-HOPKINS    MOSUNNY   53  49  86 S6        30.09F
CLE-LAKEFRONT  SUNNY     55  47  74 S10       30.06F
CUY CO. ARPT   MOSUNNY   59  50  72 S7        30.07F
LORAIN-ELYRIA  SUNNY     53  48  83 SW5       30.08S
ASHTABULA      PTSUNNY   52  49  89 SW7       30.08S
AKRON-CANTON   PTSUNNY   55  50  83 SW5       30.07F HAZE
WOOSTER        NOT AVBL
MANSFIELD      CLOUDY    54  50  86 CALM      30.08S
YOUNGSTOWN     MOSUNNY   53  50  89 S6        30.07F
$$

OHZ042-051>053-060>062-070>072-077>081-171400-
  SOUTHWEST OHIO

CITY           SKY/WX    TMP DP  RH WIND       PRES   REMARKS
CINC-COVINGTON CLOUDY    54  52  93 CALM      30.07F
CINC-LUNKEN    CLOUDY    54  51  90 CALM      30.09F
HAMILTON       CLOUDY    53  51  93 CALM      30.09F
DAYTON         NOT AVBL
WRIGHT-PAT AFB NOT AVBL
DAYTON GENERAL CLOUDY    53  50  89 E5        30.08S
WILMINGTON     CLOUDY    54  48  80 NE7       30.08S
$$

OHZ036-037-039>041-045>050-054>059-063>069-073>076-082>088-171400-
  CENTRAL AND SOUTHEAST OHIO

CITY           SKY/WX    TMP DP  RH WIND       PRES   REMARKS
COLUMBUS       PTSUNNY   57  50  77 N5        30.07S
OSU AIRPORT    CLOUDY    55  50  83 CALM      30.08S
BOLTON FIELD   CLOUDY    54  52  94 NW3       30.08S
RICKENBACK AFB NOT AVBL
NEWARK         CLOUDY    53  50  89 CALM      30.07S FOG
MARION         CLOUDY    50  48  93 CALM      30.08S
LANCASTER      PTSUNNY   55  51  86 NE3       30.07S FOG
ZANESVILLE     SUNNY     54  49  83 CALM      30.07S
NEW PHILLY     CLOUDY    50  50 100 CALM      30.09S FOG
$$


USA.gov is the U.S. government's official web portal to all federal, state and local government web resources and services.